Home   Weather   Altenburg   Past weeks

Flag for Germany Past Weather in Altenburg, Thuringia, Germany — Yesterday and Last 2 Weeks

Now
46 °F

Passing clouds.


Feels Like: 41 °F
Forecast: 38 / 45 °F
Wind: 12 mph from Southwest

Location: Leipzig-Schkeuditz

Current Time: Dec 10, 2016 at 11:30:24 pm

Latest Report: Dec 10, 2016 at 10:50 pm


Visibility: N/A

Pressure: 30.09 "Hg

Humidity: 76%

Dew Point: 39 °F

Location of AltenburgLocation

Past Weather in Altenburg — Graph

°F

Altenburg Temperature Yesterday

Maximum temperature yesterday: 46 °F (at 12:20 pm)
Minimum temperature yesterday: 36 °F (at 12:20 am)
Average temperature yesterday: 43 °F

High & Low Weather Summary for the Past Weeks

 TemperatureHumidityPressure
High48 °F (Dec 10, 10:20 am)100% (Nov 25, 10:20 pm)30.57 "Hg (Nov 25, 10:20 pm)
Low19 °F (Dec 5, 2:50 am)53% (Dec 8, 1:50 pm)29.89 "Hg (Dec 2, 12:50 am)
Average34 °F86%30.28 "Hg
* Reported Nov 25 10:20 pm — Dec 10 10:20 pm, Altenburg, Weather by CustomWeather, © 2016

Note: Actual official high and low records may vary slightly from our data, if they occured in-between our weather recording intervals... More about our weather records

Advertising

Altenburg Weather History for the Previous 24 Hours

Scroll right to see more
 ConditionsComfort  
Time TempWeatherWind HumidityBarometerVisibility
10:20 pm
Sat, Dec 10
46 °FPassing clouds.13 mph76%30.09 "HgN/A
9:50 pm46 °FPassing clouds.12 mph76%30.09 "HgN/A
9:20 pm46 °FPassing clouds.12 mph76%30.12 "HgN/A
8:50 pm46 °FPassing clouds.10 mph76%30.12 "HgN/A
8:20 pm48 °FPassing clouds.12 mph71%30.12 "HgN/A
7:50 pm48 °FPassing clouds.13 mph71%30.12 "HgN/A
7:20 pm46 °FPassing clouds.13 mph76%30.12 "HgN/A
6:50 pm46 °FPassing clouds.13 mph76%30.12 "HgN/A
6:20 pm46 °FPassing clouds.14 mph76%30.15 "HgN/A
5:50 pm48 °FPassing clouds.13 mph71%30.15 "HgN/A
5:20 pm48 °FPartly cloudy.13 mph76%30.15 "HgN/A
4:50 pm48 °FPartly cloudy.10 mph76%30.15 "HgN/A
4:20 pm46 °FPartly cloudy.12 mph82%30.15 "HgN/A
3:50 pm46 °FSunny.13 mph82%30.15 "Hg10 mi
3:20 pm46 °FSunny.13 mph82%30.15 "Hg10 mi
2:50 pm48 °FSunny.15 mph76%30.15 "Hg10 mi
2:20 pm48 °FSunny.15 mph76%30.15 "Hg10 mi
1:50 pm48 °FSunny.14 mph76%30.15 "Hg10 mi
1:20 pm48 °FSunny.14 mph71%30.15 "Hg10 mi
12:50 pm48 °FSunny.17 mph71%30.15 "Hg10 mi
12:20 pm48 °FBroken clouds.16 mph76%30.15 "HgN/A
11:50 am48 °FBroken clouds.16 mph76%30.15 "HgN/A
11:20 am48 °FSunny.14 mph76%30.18 "Hg10 mi
10:50 am48 °FSunny.16 mph76%30.18 "Hg10 mi
10:20 am48 °FSunny.15 mph76%30.18 "Hg10 mi
9:50 am46 °FSunny.13 mph82%30.18 "Hg10 mi
9:20 am45 °FSunny.13 mph87%30.18 "Hg10 mi
8:50 am45 °FSunny.14 mph87%30.18 "Hg10 mi
8:20 am45 °FSunny.15 mph87%30.18 "Hg10 mi
7:50 am45 °FClear.13 mph87%30.18 "Hg10 mi
7:20 am45 °FClear.13 mph81%30.18 "Hg10 mi
6:50 am43 °FClear.13 mph87%30.18 "Hg10 mi
6:20 am43 °FClear.13 mph87%30.18 "Hg10 mi
5:50 am43 °FClear.13 mph87%30.18 "Hg10 mi
5:20 am43 °FClear.13 mph87%30.21 "Hg10 mi
4:50 am43 °FClear.15 mph87%30.21 "Hg10 mi
4:20 am43 °FClear.12 mph87%30.21 "Hg10 mi
3:50 am43 °FClear.13 mph87%30.21 "Hg10 mi
3:20 am43 °FClear.15 mph93%30.21 "Hg10 mi
2:50 am43 °FClear.18 mph93%30.24 "Hg10 mi
2:20 am43 °FClear.14 mph93%30.24 "Hg10 mi
1:50 am45 °FClear.10 mph87%30.24 "Hg10 mi
1:20 am45 °FClear.13 mph87%30.24 "Hg10 mi
12:50 am45 °FClear.15 mph93%30.24 "Hg10 mi
12:20 am45 °FPassing clouds.16 mph87%30.24 "HgN/A
11:50 pm
Fri, Dec 9
46 °FPassing clouds.14 mph87%30.27 "HgN/A
11:20 pm45 °FPartly cloudy.14 mph93%30.27 "HgN/A
Weather by CustomWeather, © 2016

See weather overviewHow to use our weather pages